Location: Unspecified
(0.0000°N, 0.0000°E)
Time: 15:34:37
(UTC+00:00)

Vanguard 1 - Pass Details

Date: 16 December 2017
Orbit: 650 x 3833 km, 34.2° (Epoch: 20 April)

Event Time Altitude Azimuth Distance (km) Brightness Sun altitude
Rises 09:34:05 0° 282° (WNW) 7,970 14.3 48.5°
Reaches altitude 10° 09:42:55 10° 298° (WNW) 6,838 14.1 50.2°
Maximum altitude 09:56:21 19° 336° (NNW) 5,479 13.7 52.8°
Drops below altitude 10° 10:07:03 10° 16° (NNE) 5,325 13.8 54.8°
Sets 10:12:35 0° 34° (NE) 5,754 13.9 55.8°
